User: anonymous   Login
Location: Toronto
(43.6672°N, 79.4170°W)
Time: 19:14:36
(UTC-05:00)
Language:

ISS - Orbit

View from above orbital plane
View from above orbital plane
View from above satellite
View from above satellite

Ground track
Ground track

The orbit data is extracted from the following two-line orbital elements,

1 25544U 98067A   16338.68162130  .00016717  00000-0  10270-3 0  9094
2 25544  51.6424 292.8684 0006301 289.8205  70.2268 15.53777034 31345
Epoch (UTC): 03 December 2016 16:21:32
Eccentricity: 0.0006301
inclination: 51.6424°
perigee height: 401 km
apogee height: 410 km
right ascension of ascending node: 292.8684°
argument of perigee: 289.8205°
revolutions per day: 15.53777034
mean anomaly at epoch: 70.2268°
orbit number at epoch: 3134

The dashed part of the orbit path shows where the satellite is in the earth's shadow,  

DLR